Theta_e
348 349 349 349 349 348 348 347 345 344 344 344 344 344 344 345 345 345 345 345 344 343 342 343 342 342 342 342 343 343 344 346 348 348 348 347 347 346 346 346 347 347
346 349 349 349 349 348 349 349 348 347 346 346 345 345 345 345 345 345 345 344 345 344 343 342 342 342 342 342 342 343 344 346 348 348 347 346 345 344 344 344 345 345
343 348 349 348 348 348 349 350 351 350 349 349 347 346 345 345 344 344 344 344 344 345 344 343 342 342 342 343 343 343 343 345 348 348 347 345 344 342 342 342 342 343
338 343 347 348 348 348 349 350 351 351 351 350 348 346 346 345 344 343 343 343 344 345 345 344 343 343 343 343 343 344 344 345 347 347 346 344 342 341 341 340 340 341
334 337 342 346 347 347 348 349 350 351 351 350 350 347 346 345 344 343 343 342 343 343 344 344 344 344 344 344 344 344 345 346 346 346 346 344 344 343 342 342 341 341
333 334 337 342 345 345 345 346 348 350 350 350 350 349 348 347 346 345 344 343 342 342 342 344 344 344 345 345 345 345 345 346 346 346 346 346 346 346 344 343 343 342
333 333 334 337 341 343 342 343 344 347 348 348 348 348 348 348 347 347 346 345 344 343 342 342 343 345 346 346 346 346 345 345 344 344 345 346 346 346 346 345 344 344
335 333 333 335 337 339 340 340 340 342 344 346 346 346 346 347 346 347 347 348 348 348 345 343 342 345 347 347 347 346 345 344 343 343 344 344 344 344 344 344 344 344
337 335 334 334 335 336 337 337 337 337 339 342 344 344 344 344 345 345 346 347 347 348 347 346 345 346 349 349 348 346 345 344 344 343 343 343 342 342 342 343 343 343
339 336 334 333 333 335 335 336 336 335 335 338 341 343 343 343 343 343 344 345 345 346 347 347 347 349 350 350 349 347 345 344 343 343 343 343 342 342 342 342 342 343
343 340 336 334 334 334 334 335 335 334 333 334 336 339 340 342 342 342 343 343 344 345 346 346 348 349 349 349 348 348 347 345 344 342 342 342 342 342 342 342 342 342
347 345 340 337 336 335 334 333 334 333 333 333 333 334 337 339 340 341 342 343 344 345 345 345 346 347 348 348 348 348 348 349 348 346 344 341 341 342 342 341 341 341
348 348 344 339 336 336 336 335 333 333 333 333 333 333 334 335 336 338 339 340 342 343 344 345 344 344 345 345 347 348 349 349 349 348 347 344 342 341 340 339 339 339
347 348 347 344 338 335 335 336 335 335 334 333 333 333 333 333 333 334 336 337 338 339 341 344 345 344 343 343 344 346 346 347 347 347 347 345 344 343 342 340 339 338
348 348 348 348 344 339 336 336 335 335 335 334 334 333 333 333 332 332 333 334 335 336 339 343 346 346 345 344 344 345 346 346 346 346 346 346 346 346 345 344 343 341
348 348 348 349 349 347 344 342 340 339 338 337 336 335 334 333 333 332 332 332 333 334 336 341 345 347 347 347 347 346 347 348 347 346 346 346 346 347 347 346 346 345
349 350 350 350 350 350 349 349 348 347 346 344 343 342 341 339 336 334 334 334 334 334 336 338 342 345 347 348 348 348 348 349 349 348 347 347 347 346 346 346 346 346
352 352 352 352 352 352 351 351 351 351 351 349 349 349 349 347 344 340 338 338 338 337 337 338 339 342 344 346 347 347 348 348 348 348 348 348 347 346 345 345 345 345
352 352 352 353 353 353 352 352 351 351 351 352 352 352 352 353 350 347 344 343 342 341 339 339 339 339 340 342 343 344 346 346 347 347 347 346 346 346 346 345 344 344
350 350 350 351 351 351 351 351 351 352 352 353 353 353 353 354 353 352 350 348 348 347 345 345 343 340 339 340 342 343 344 345 346 346 345 345 345 345 345 345 345 344
348 349 349 349 350 350 350 350 350 351 351 351 351 352 352 352 353 353 352 351 351 350 350 350 349 345 343 343 344 345 346 346 345 345 345 345 344 344 344 344 344 344
345 346 346 347 347 348 348 349 349 349 350 350 350 350 350 351 351 351 351 351 351 351 351 351 350 348 347 347 346 347 348 348 347 347 347 346 346 345 345 345 344 344
342 342 342 343 343 344 346 346 346 346 347 348 349 349 350 351 351 350 351 351 351 351 350 350 350 349 349 349 349 349 349 349 350 349 349 349 348 348 347 347 346 345
338 338 338 339 339 340 341 341 342 342 343 344 345 346 347 348 348 349 349 350 350 350 350 350 350 350 350 350 350 350 349 350 350 350 349 349 349 349 349 348 347 346
332 330 329 330 330 331 333 335 336 337 339 340 342 343 344 344 345 346 346 347 347 347 347 348 349 350 350 350 351 350 350 350 351 351 351 350 350 350 350 350 349 348
328 325 323 322 323 325 328 331 333 335 337 340 342 342 342 343 344 344 344 345 345 345 346 346 347 347 348 349 349 350 350 351 351 351 352 352 352 352 352 351 351 350
Wind_Speed
15 12 10 9 9 9 8 8 8 8 7 6 6 5 5 6 7 7 7 7 7 8 8 8 9 9 9 9 9 8 8 7 8 8 8 8 8 8 9 8 8 7
15 14 12 10 10 9 9 8 8 7 7 6 6 6 6 6 7 7 7 8 7 7 8 8 9 9 9 9 9 8 8 7 8 8 9 9 8 9 9 9 10 9
15 15 13 12 11 9 9 9 8 7 7 6 7 7 7 7 7 7 7 7 7 8 8 9 9 9 9 9 9 8 8 8 8 9 9 9 9 9 9 10 10 10
15 15 14 13 12 10 10 10 9 8 7 7 7 7 8 8 7 7 7 8 8 8 9 9 9 9 9 9 9 9 8 8 8 9 9 9 9 9 9 10 10 10
14 14 14 14 13 12 11 11 10 9 8 7 7 7 7 7 7 8 8 8 8 8 9 9 9 9 9 8 8 8 8 8 8 9 9 9 9 9 9 10 10 10
15 14 14 14 14 13 12 11 11 10 9 8 7 7 7 7 7 8 8 8 8 9 9 9 8 8 8 8 8 8 8 8 9 9 10 10 10 10 10 10 10 10
16 15 15 15 15 15 13 12 12 11 10 9 9 8 8 7 7 8 9 8 8 8 9 9 9 8 8 8 8 8 8 9 9 9 10 10 10 11 11 11 11 11
16 16 16 16 16 15 14 13 12 11 10 10 10 10 9 9 8 8 9 9 9 9 8 9 9 8 8 8 8 8 9 9 9 9 9 10 10 11 11 11 12 11
15 16 16 16 16 16 15 14 12 11 11 10 10 10 10 10 9 9 10 9 9 9 9 9 9 9 8 9 9 9 9 9 9 9 9 9 10 10 10 11 12 12
13 15 16 16 16 15 15 14 13 12 12 11 11 10 10 10 10 10 10 10 10 9 9 9 10 10 10 10 10 10 10 9 9 9 9 9 9 9 9 10 11 11
12 13 15 16 16 16 15 15 14 14 13 13 12 12 11 10 10 10 11 11 11 10 10 10 10 10 10 10 10 10 10 9 9 9 9 10 10 10 9 10 10 10
12 12 13 15 16 16 16 16 16 16 15 14 14 14 13 12 11 11 11 11 11 11 11 11 11 11 10 10 10 10 10 10 10 10 10 10 11 11 11 11 11 11
14 13 13 15 17 17 17 18 17 17 17 16 15 15 15 14 14 14 13 13 12 12 12 12 11 12 12 11 11 11 11 11 10 10 10 11 11 11 11 12 12 12
16 15 14 15 16 18 18 18 18 18 18 18 17 17 16 16 16 16 16 15 15 14 14 13 12 12 12 12 12 11 11 11 11 11 11 10 10 10 10 10 11 11
17 17 16 15 15 17 18 18 18 18 18 19 18 18 18 17 17 17 17 17 16 16 15 14 13 13 12 11 11 10 10 10 11 10 11 11 11 10 10 10 10 10
18 18 17 17 17 17 16 17 17 17 18 18 19 18 18 18 18 18 18 18 18 18 17 16 15 14 13 11 11 10 10 11 11 11 11 12 12 12 12 11 11 11
19 18 18 18 19 19 18 17 16 16 17 18 18 18 18 18 19 19 19 19 19 18 18 17 17 16 14 13 12 12 12 12 13 13 13 14 14 14 14 13 13 13
18 18 18 19 20 20 20 19 18 18 18 19 19 19 19 19 19 19 19 19 18 18 18 17 18 17 16 16 15 14 14 14 14 15 15 15 15 15 15 15 14 14
16 16 16 17 18 20 20 20 20 19 18 20 21 21 20 20 20 20 19 18 18 18 17 17 17 17 17 17 17 16 16 15 15 15 15 16 16 17 17 17 17 16
11 12 13 13 15 15 16 17 18 17 17 19 20 19 18 19 20 20 20 19 17 17 16 16 17 17 18 18 18 17 17 17 16 16 16 16 16 16 17 18 18 19
10 9 9 9 10 10 10 11 12 12 13 14 15 16 14 15 17 18 19 19 19 18 17 16 18 19 18 18 18 18 18 17 17 17 17 17 17 17 17 18 19 20
8 7 6 6 6 6 5 5 5 7 8 9 11 12 12 13 15 16 17 18 18 19 17 17 19 20 19 19 20 20 20 20 19 20 20 20 20 19 19 19 20 21
6 5 4 3 3 3 4 3 2 3 4 5 7 8 8 10 12 13 14 14 15 16 17 17 20 21 21 21 21 22 22 22 22 22 23 23 23 22 22 22 22 22
8 6 5 4 4 2 1 2 2 2 1 2 3 5 6 7 8 9 9 10 11 12 12 14 17 19 20 20 21 21 22 22 23 24 25 25 25 24 23 23 22 23
9 9 9 10 9 8 7 5 4 2 1 0 2 5 5 5 5 5 5 6 7 8 8 8 11 13 15 16 17 17 19 20 21 22 23 24 25 24 23 23 22 23
8 7 8 8 9 8 8 8 7 6 5 3 1 2 2 2 2 1 2 3 4 5 6 6 8 10 11 12 13 14 15 16 17 18 19 21 22 22 21 20 20 21
Wind_Direction
198 194 190 189 188 186 189 191 191 191 191 196 198 198 196 195 199 199 198 205 211 214 218 218 218 216 215 217 216 216 220 225 235 246 254 259 259 254 251 249 250 253
203 199 195 195 194 191 191 191 190 190 191 194 197 196 196 198 200 199 197 202 207 213 218 220 221 222 222 222 221 223 228 230 235 247 258 263 263 259 258 258 256 254
205 203 200 200 200 196 196 197 196 196 197 200 200 197 198 200 203 203 203 203 206 212 218 219 221 225 227 227 226 229 232 232 238 248 255 258 259 261 263 264 263 261
206 207 205 203 203 201 201 204 205 204 201 202 204 200 197 199 203 206 207 209 209 213 217 218 220 225 229 231 232 232 233 235 242 248 251 251 254 259 262 263 263 265
208 208 208 207 204 202 203 207 209 207 199 196 202 203 200 203 209 212 213 213 213 215 218 218 220 223 228 232 235 237 239 243 247 248 248 248 249 253 257 258 260 263
207 207 209 211 209 205 206 207 208 207 201 198 201 205 209 213 219 223 223 220 218 220 221 221 221 223 227 231 235 241 246 251 253 250 248 248 248 248 250 252 254 258
206 206 207 211 213 212 211 209 208 208 207 207 207 208 213 220 226 230 232 231 229 228 227 226 226 226 229 235 242 248 254 258 259 258 256 255 253 252 251 252 253 255
209 208 208 211 215 217 216 214 212 210 212 216 216 214 215 221 227 231 233 236 237 238 235 231 228 228 233 240 247 253 257 260 263 264 262 260 257 256 255 255 257 259
215 212 211 212 216 218 218 219 218 215 216 221 221 220 220 222 226 230 233 236 240 244 242 238 235 235 241 248 251 254 258 262 266 267 266 265 264 261 260 259 260 262
222 219 216 215 218 222 222 222 224 223 221 221 224 226 226 225 227 230 234 236 238 241 242 242 242 244 249 254 254 256 259 262 266 267 268 269 269 268 266 265 264 265
227 228 224 221 221 225 227 228 230 232 231 228 227 229 231 232 233 234 237 239 240 240 239 238 240 244 249 253 255 258 260 263 266 268 270 271 270 270 270 268 268 269
226 228 229 227 225 226 227 229 231 233 235 235 234 234 235 235 236 237 239 242 244 245 244 242 241 242 245 247 251 257 261 265 268 270 271 271 271 272 271 271 270 269
228 227 229 230 229 228 228 229 231 232 234 236 237 237 239 239 239 239 240 241 243 244 245 246 245 245 245 244 246 252 258 264 269 273 273 271 271 273 274 274 274 273
233 231 230 230 231 233 233 232 232 233 234 235 236 236 238 240 243 245 246 245 243 241 240 242 243 244 245 244 244 248 255 263 269 273 274 274 273 274 274 274 275 276
237 235 234 233 233 234 237 238 237 237 237 237 238 238 238 239 240 244 248 249 247 244 241 240 241 242 243 242 243 248 255 264 269 272 273 275 278 279 279 277 276 275
241 240 239 239 239 238 238 239 241 241 241 241 240 239 239 239 239 240 244 248 250 249 246 243 243 244 244 242 243 247 255 264 268 269 270 272 276 279 279 280 280 277
245 244 243 243 244 243 240 240 243 246 247 245 242 240 239 239 239 239 240 244 249 251 250 248 248 248 248 247 244 244 251 259 264 267 267 268 270 272 272 275 277 277
247 247 248 247 247 246 244 243 245 249 250 247 244 243 243 242 240 239 238 241 245 250 252 252 253 253 252 252 250 248 251 257 262 266 268 268 268 268 268 269 270 272
244 244 245 244 244 245 244 244 246 247 245 242 242 245 246 246 245 244 243 244 247 252 255 256 256 255 253 252 250 250 252 257 263 267 270 271 270 270 270 269 269 269
228 234 236 235 237 237 237 238 239 240 238 237 240 244 246 246 246 246 246 247 250 253 256 258 258 255 253 252 249 248 250 254 261 267 271 273 273 273 273 272 272 272
189 201 209 210 217 224 227 228 228 230 234 235 238 241 244 246 245 245 244 245 246 248 249 252 255 257 258 258 256 254 254 256 259 265 270 273 275 276 277 276 275 274
170 173 174 176 186 197 205 213 218 225 232 237 241 243 244 245 244 243 244 244 244 245 244 245 252 256 258 260 261 262 263 264 266 267 270 272 274 276 278 279 279 277
141 152 165 173 187 200 207 218 230 226 224 235 242 239 236 238 243 246 247 247 248 250 248 249 254 257 258 259 262 263 264 267 269 271 272 272 273 274 276 278 279 279
95 92 88 79 72 73 136 193 219 232 228 245 248 239 232 233 240 248 251 251 254 256 256 256 258 260 260 260 261 262 264 268 271 272 272 272 271 272 273 275 276 277
80 75 72 73 73 72 77 89 95 93 86 48 246 240 235 226 224 236 246 251 259 267 272 271 267 265 265 266 266 266 266 269 270 271 272 271 271 271 271 271 272 272
91 85 80 81 84 83 82 83 82 82 85 96 151 196 197 163 148 201 242 260 272 280 285 282 274 270 269 270 271 270 269 270 271 272 272 272 272 272 272 271 271 271